EW7070 Weather Reports


time (UTC)temp
C
wind
direction
speed
KPH
gust
KPH
rain 1hr
cm
rain 24hr
cm
rain mn
cm
humidity
%
barometer
mb
20260509034714 9 77 0.0 0.0 0.00 0.74 0.00 87 1012.9
20260509034210 9 77 0.0 0.0 0.00 0.74 0.00 86 1013.0
20260509033708 9 272 0.0 0.0 0.00 0.74 0.00 86 1013.1
20260509033147 9 272 0.0 0.0 0.00 0.74 0.00 86 1013.0
20260509032645 10 271 0.0 0.0 0.00 0.74 0.00 85 1012.8
20260509032134 10 271 0.0 0.0 0.00 0.76 0.00 85 1012.8
20260509031634 10 271 0.0 0.0 0.00 0.76 0.00 85 1012.7
20260509031120 10 271 0.0 0.0 0.00 0.76 0.00 85 1012.8
20260509030559 10 271 0.0 0.0 0.00 0.76 0.00 83 1012.7
20260509030049 10 271 0.0 0.0 0.00 0.76 0.00 83 1012.5
20260509025758 10 271 0.0 0.0 0.00 0.76 0.76 83 1012.7
20260509024959 10 271 0.0 0.0 0.00 0.76 0.76 82 1012.7
20260509024437 11 271 0.0 0.0 0.00 0.76 0.76 82 1012.5
20260509023938 11 257 0.0 0.0 0.00 0.76 0.76 82 1012.5
20260509023423 11 246 0.0 0.0 0.00 0.76 0.76 82 1012.3
20260509022913 11 230 0.0 0.0 0.00 0.76 0.76 81 1012.3
20260509022411 11 212 0.0 0.0 0.00 0.76 0.76 80 1011.9
20260509021913 11 212 0.0 0.0 0.00 0.76 0.76 79 1011.7
20260509021409 12 242 0.0 0.0 0.00 0.79 0.76 78 1011.8
20260509020843 12 242 0.0 0.0 0.00 0.81 0.76 78 1011.8
20260509020339 12 242 0.0 0.0 0.00 0.84 0.76 78 1011.7
20260509015836 12 242 0.0 0.0 0.00 0.94 0.76 77 1011.5
20260509015328 12 242 0.0 0.0 0.00 0.97 0.76 77 1011.7
20260509014823 12 242 0.0 0.0 0.00 0.97 0.76 77 1011.6
20260509014319 12 218 0.0 0.0 0.00 0.97 0.76 76 1011.5
20260509013813 12 256 0.0 0.0 0.00 0.97 0.76 75 1011.1
20260509013246 12 289 0.0 0.0 0.00 0.97 0.76 76 1010.8
20260509012721 13 296 0.0 0.0 0.00 0.97 0.76 74 1010.9
20260509012153 13 296 0.0 0.0 0.00 0.97 0.76 73 1010.7
20260509011625 14 296 0.0 0.0 0.00 0.97 0.76 73 1010.8
20260509011121 15 300 0.0 0.0 0.00 0.97 0.76 72 1010.9
20260509010617 15 263 0.0 0.0 0.00 0.97 0.76 70 1011.0
20260509010107 15 263 0.0 0.0 0.00 0.97 0.76 68 1010.8
20260509005556 16 268 0.0 0.0 0.00 0.97 0.76 66 1010.8
20260509005056 16 191 0.0 0.0 0.00 0.97 0.76 65 1010.7
20260509004557 16 214 0.0 4.8 0.00 0.97 0.76 64 1010.7
20260509004055 16 228 0.0 4.8 0.00 0.97 0.76 62 1010.6
20260509003529 16 230 1.6 4.8 0.00 0.97 0.76 60 1010.7
20260509003024 16 204 3.2 6.4 0.00 0.97 0.76 59 1010.7
20260509002517 16 201 3.2 11.3 0.00 0.97 0.76 59 1010.6
20260509001953 16 287 4.8 11.3 0.00 0.97 0.76 58 1010.5
20260509001728 16 272 4.8 14.5 0.00 0.97 0.76 58 1010.6
20260509001423 16 285 3.2 12.9 0.00 0.97 0.76 58 1010.5
20260509000625 16 249 3.2 11.3 0.00 0.97 0.76 59 1010.5
20260508235907 16 258 3.2 8.0 0.00 0.97 0.76 58 1010.4
20260508235622 16 237 3.2 9.7 0.00 0.97 0.76 59 1010.4
20260508234857 16 217 4.8 14.5 0.00 0.97 0.76 59 1010.4
20260508234332 16 262 4.8 14.5 0.00 0.97 0.76 59 1010.3
20260508233826 16 265 4.8 11.3 0.00 0.97 0.76 59 1010.3
20260508233328 16 308 4.8 11.3 0.00 0.97 0.76 60 1010.3
20260508232804 16 274 4.8 12.9 0.00 0.97 0.76 59 1010.2
20260508232259 15 251 3.2 14.5 0.00 0.97 0.76 61 1010.1
20260508231752 15 349 3.2 9.7 0.00 0.97 0.76 63 1010.1
20260508231225 15 302 3.2 8.0 0.00 0.97 0.76 66 1010.0
20260508230722 13 274 1.6 9.7 0.00 0.97 0.76 71 1009.6
20260508230714 14 279 3.2 9.7 0.00 0.97 0.76 70 1009.8
20260508225648 13 263 0.0 0.0 0.00 0.97 0.76 78 1009.3
20260508225122 13 291 0.0 0.0 0.00 0.97 0.76 83 1009.4
20260508224617 13 291 0.0 0.0 0.00 0.97 0.76 82 1009.5
20260508224348 13 301 0.0 0.0 0.00 0.97 0.76 81 1009.3
20260508223600 13 301 0.0 0.0 0.00 0.97 0.76 81 1009.3
20260508223102 13 301 0.0 0.0 0.00 0.97 0.76 80 1009.3
20260508222541 13 301 0.0 0.0 0.00 0.97 0.76 80 1009.0
20260508222013 13 301 0.0 0.0 0.00 0.97 0.76 78 1009.0
20260508221508 13 301 0.0 0.0 0.00 0.97 0.76 76 1008.8
20260508221212 13 301 0.0 0.0 0.00 0.97 0.76 77 1008.8
20260508220435 14 301 0.0 1.6 0.00 0.97 0.76 75 1008.7
20260508215910 14 280 0.0 4.8 0.00 0.97 0.76 74 1008.6
20260508215344 14 280 1.6 4.8 0.00 0.97 0.76 71 1008.5
20260508215122 15 295 0.0 4.8 0.00 0.97 0.76 70 1008.5
20260508214844 14 283 1.6 4.8 0.00 0.97 0.76 71 1008.5
20260508213816 15 261 0.0 3.2 0.00 0.97 0.76 70 1008.3
20260508213511 15 327 0.0 3.2 0.00 0.97 0.76 66 1008.0
20260508212741 16 305 1.6 4.8 0.00 0.97 0.76 68 1008.0
20260508212232 16 262 1.6 4.8 0.00 0.97 0.76 64 1007.9
20260508211734 17 299 1.6 4.8 0.00 0.97 0.76 62 1007.7
20260508211206 17 283 1.6 4.8 0.00 0.97 0.76 60 1007.7
20260508210928 18 294 0.0 4.8 0.00 0.97 0.76 55 1007.8
20260508210155 18 353 0.0 0.0 0.00 0.97 0.76 54 1007.8
20260508205632 18 353 1.6 8.0 0.00 0.97 0.76 51 1007.8
20260508205104 18 353 1.6 16.1 0.00 0.97 0.76 49 1007.7
20260508204554 18 187 3.2 16.1 0.00 0.97 0.76 50 1007.6
20260508204054 18 285 4.8 12.9 0.00 0.97 0.76 48 1007.5
20260508203552 18 235 6.4 16.1 0.00 0.97 0.76 48 1007.3
20260508203040 19 273 8.0 17.7 0.00 0.97 0.76 47 1007.3
20260508202744 19 287 8.0 16.1 0.00 0.97 0.76 49 1007.2
20260508201946 19 231 6.4 20.9 0.00 0.97 0.76 49 1007.1
20260508201441 20 331 4.8 17.7 0.00 0.97 0.76 48 1007.1
20260508200922 20 337 4.8 12.9 0.00 0.97 0.76 52 1007.2
20260508200424 20 325 3.2 12.9 0.00 0.97 0.76 50 1007.3
20260508195922 20 337 3.2 11.3 0.00 0.97 0.76 50 1007.2
20260508195420 21 340 6.4 14.5 0.00 0.97 0.76 48 1007.2
20260508194920 21 332 6.4 17.7 0.00 0.97 0.76 49 1007.2
20260508194353 21 322 8.0 17.7 0.00 0.97 0.76 49 1007.2
20260508193846 21 345 8.0 16.1 0.00 0.97 0.76 48 1007.2
20260508193615 21 318 8.0 16.1 0.00 0.97 0.76 50 1007.2
20260508192815 21 350 6.4 16.1 0.00 0.97 0.76 48 1007.3
20260508192310 21 4 8.0 14.5 0.00 0.97 0.76 49 1007.3
20260508191744 21 13 6.4 22.5 0.00 0.97 0.76 48 1007.3
20260508191241 21 334 8.0 22.5 0.00 0.97 0.76 48 1007.4
20260508190735 21 4 8.0 22.5 0.00 0.97 0.76 47 1007.3
20260508190208 21 324 8.0 22.5 0.00 0.97 0.76 47 1007.1
20260508185924 21 327 8.0 20.9 0.00 0.97 0.76 47 1007.0
20260508185423 21 332 9.7 22.5 0.00 0.97 0.76 47 1007.0
20260508184654 21 356 9.7 22.5 0.00 0.97 0.76 47 1006.9
20260508184410 21 11 11.3 32.2 0.00 0.97 0.76 47 1006.9
20260508184126 21 312 11.3 20.9 0.00 0.97 0.76 47 1006.9
20260508183055 21 357 12.9 22.5 0.00 0.97 0.76 46 1006.9
20260508182544 21 337 14.5 25.7 0.00 0.97 0.76 45 1006.8
20260508182044 21 312 12.9 27.4 0.00 0.97 0.76 45 1006.9
20260508181545 22 275 9.7 22.5 0.00 0.97 0.76 45 1006.8
20260508181038 22 330 11.3 29.0 0.00 0.97 0.76 46 1006.7
20260508180534 22 343 9.7 29.0 0.00 0.97 0.76 45 1006.6
20260508180032 22 16 8.0 22.5 0.00 0.97 0.76 45 1006.6
20260508175529 22 315 6.4 20.9 0.00 0.97 0.76 44 1006.6
20260508175029 22 290 8.0 20.9 0.00 0.97 0.76 45 1006.6
20260508174502 22 297 9.7 20.9 0.00 0.97 0.76 43 1006.7
20260508173955 22 297 11.3 25.7 0.00 0.97 0.76 44 1006.8
20260508173441 22 291 9.7 25.7 0.00 0.97 0.76 44 1006.8
20260508172941 22 272 9.7 25.7 0.00 0.97 0.76 46 1006.7
20260508172441 22 338 11.3 22.5 0.00 0.97 0.76 48 1006.6
20260508171914 22 1 11.3 24.1 0.00 0.97 0.76 48 1006.6
20260508171415 22 331 11.3 24.1 0.00 0.97 0.76 45 1006.6
20260508170850 22 321 11.3 24.1 0.00 0.97 0.76 47 1006.7
20260508170349 22 338 12.9 32.2 0.00 0.97 0.76 46 1006.7
20260508165845 22 348 11.3 32.2 0.00 0.97 0.76 45 1006.7
20260508165318 22 345 8.0 27.4 0.00 0.97 0.76 46 1006.8
20260508165020 22 333 8.0 20.9 0.00 0.97 0.76 49 1006.7
20260508164223 21 282 9.7 24.1 0.00 0.97 0.76 49 1006.7
20260508163656 21 348 9.7 24.1 0.00 0.97 0.76 48 1006.7
20260508163134 21 302 9.7 25.7 0.00 0.97 0.76 49 1006.8
20260508162621 21 322 11.3 25.7 0.00 0.97 0.76 48 1006.9
20260508162114 21 353 12.9 30.6 0.00 0.97 0.76 49 1006.8
20260508161550 21 348 11.3 30.6 0.00 0.97 0.76 49 1006.9
20260508161048 21 318 8.0 22.5 0.00 0.97 0.76 48 1006.8
20260508160550 21 309 9.7 24.1 0.00 0.97 0.76 48 1007.1
20260508160047 21 305 9.7 29.0 0.00 0.97 0.76 48 1007.1
20260508155548 21 285 9.7 29.0 0.00 0.97 0.76 48 1007.1
20260508155036 21 227 9.7 22.5 0.00 0.97 0.76 47 1007.3
20260508154534 20 330 8.0 22.5 0.00 0.97 0.76 47 1007.4
20260508154027 20 301 8.0 20.9 0.00 0.97 0.76 48 1007.5
20260508153524 20 283 9.7 27.4 0.00 0.97 0.76 50 1007.6
20260508152956 20 319 11.3 27.4 0.00 0.97 0.76 49 1007.7
20260508152446 20 328 8.0 27.4 0.00 0.97 0.76 49 1007.9
20260508151922 20 289 8.0 19.3 0.00 0.97 0.76 52 1007.8
20260508151355 20 337 9.7 20.9 0.00 0.97 0.76 55 1007.8
20260508151057 20 8 11.3 25.7 0.00 0.97 0.76 54 1007.8
20260508150258 20 294 11.3 25.7 0.00 0.97 0.76 52 1008.0
20260508145756 20 353 11.3 24.1 0.00 0.97 0.76 54 1008.1
20260508145225 20 331 11.3 24.1 0.00 0.97 0.76 54 1008.2
20260508144719 20 7 11.3 25.7 0.00 0.97 0.76 54 1008.4
20260508144214 20 320 9.7 25.7 0.00 0.97 0.76 52 1008.3
20260508143710 20 333 8.0 20.9 0.00 0.97 0.76 54 1008.4
20260508143204 19 354 8.0 19.3 0.00 0.97 0.76 56 1008.5
20260508142701 19 352 9.7 20.9 0.00 0.97 0.76 56 1008.7
20260508142150 19 348 11.3 35.4 0.00 0.97 0.76 55 1008.7
20260508141649 19 340 9.7 35.4 0.00 0.97 0.76 57 1008.9
20260508141415 18 8 8.0 20.9 0.00 0.97 0.76 57 1009.0
20260508140913 18 337 11.3 30.6 0.00 0.97 0.76 56 1008.8
20260508140112 18 328 12.9 30.6 0.00 0.97 0.76 57 1008.8
20260508135544 18 139 11.3 38.6 0.00 0.97 0.76 56 1008.8
20260508135251 18 44 8.0 25.7 0.00 0.97 0.76 58 1008.7
20260508134452 18 2 8.0 14.5 0.00 0.97 0.76 62 1008.8
20260508133924 18 288 9.7 25.7 0.00 0.97 0.76 62 1008.9
20260508133423 18 7 9.7 24.1 0.00 0.97 0.76 62 1008.8
20260508132918 18 300 9.7 22.5 0.00 0.97 0.76 60 1008.9
20260508132410 18 331 9.7 25.7 0.00 0.97 0.76 65 1008.7
20260508131910 18 23 11.3 25.7 0.00 0.97 0.76 63 1008.9
20260508131410 18 312 9.7 17.7 0.00 0.97 0.76 63 1008.8
20260508130910 18 339 9.7 25.7 0.00 0.97 0.76 65 1009.0
20260508130345 18 323 8.0 22.5 0.00 0.97 0.76 67 1008.9
20260508125818 18 216 8.0 22.5 0.00 0.97 0.76 69 1008.8
20260508125519 18 281 8.0 22.5 0.00 0.97 0.76 67 1008.9
20260508124723 17 278 6.4 25.7 0.00 0.97 0.76 68 1008.8
20260508124218 17 141 8.0 25.7 0.00 0.97 0.76 66 1008.7
20260508123715 17 322 9.7 24.1 0.00 0.97 0.76 70 1008.6
20260508123440 17 343 9.7 17.7 0.00 0.97 0.76 69 1008.5
20260508122913 17 277 9.7 27.4 0.00 0.97 0.76 68 1008.5
20260508122142 17 326 9.7 25.7 0.00 0.97 0.76 70 1008.3
20260508121634 17 298 8.0 19.3 0.00 0.97 0.76 71 1008.5
20260508121134 17 274 8.0 22.5 0.00 0.97 0.76 71 1008.4
20260508120634 17 345 9.7 22.5 0.00 0.97 0.76 71 1008.6
20260508120132 17 310 9.7 20.9 0.00 0.97 0.76 71 1008.6
20260508115558 16 301 11.3 20.9 0.00 0.97 0.76 71 1008.5
20260508115037 16 355 12.9 27.4 0.00 0.97 0.76 73 1008.4
20260508114507 16 330 12.9 27.4 0.00 0.97 0.76 72 1008.3
20260508113939 16 313 11.3 24.1 0.00 0.97 0.76 74 1008.5
20260508113436 16 264 8.0 22.5 0.00 0.97 0.76 76 1008.5
20260508113142 16 306 6.4 17.7 0.00 0.97 0.76 74 1008.5
20260508112407 16 318 4.8 12.9 0.00 0.97 0.76 74 1008.6
20260508111841 16 330 6.4 12.9 0.00 0.97 0.76 73 1008.7
20260508111322 16 341 8.0 20.9 0.00 0.97 0.76 74 1008.7
20260508110758 16 240 8.0 20.9 0.00 0.97 0.76 73 1008.6
20260508110228 16 321 6.4 20.9 0.00 0.97 0.76 74 1008.5
20260508105705 16 330 8.0 17.7 0.00 0.97 0.76 73 1008.5
20260508105149 16 291 8.0 20.9 0.00 0.97 0.76 74 1008.5
20260508104642 16 17 8.0 22.5 0.00 0.97 0.76 75 1008.4
20260508104128 16 305 8.0 22.5 0.00 0.97 0.76 75 1008.3
20260508103628 16 288 8.0 29.0 0.00 0.97 0.76 77 1008.3
20260508103126 16 56 9.7 29.0 0.00 0.97 0.76 77 1008.2
20260508102617 16 243 4.8 19.3 0.00 0.97 0.76 78 1008.1
20260508102113 16 204 3.2 17.7 0.00 0.97 0.76 81 1007.9
20260508101612 16 287 4.8 17.7 0.00 0.97 0.76 81 1007.9
20260508101113 16 298 9.7 20.9 0.00 0.97 0.76 80 1007.8
20260508100546 16 291 11.3 20.9 0.00 0.97 0.76 80 1007.6
20260508100034 16 272 11.3 20.9 0.00 0.97 0.76 80 1007.6
20260508095531 16 256 9.7 25.7 0.00 0.97 0.76 80 1007.4
20260508095022 16 283 8.0 25.7 0.00 0.97 0.76 80 1007.3
20260508094515 16 41 4.8 17.7 0.00 0.97 0.76 80 1007.2
20260508094217 16 262 3.2 16.1 0.00 0.97 0.76 81 1006.9
20260508093427 16 353 3.2 14.5 0.00 0.97 0.76 81 1006.8
20260508093419 16 291 4.8 14.5 0.00 0.97 0.76 81 1006.7
20260508092648 16 8 3.2 11.3 0.00 0.97 0.76 82 1006.7
20260508091916 16 262 6.4 25.7 0.00 0.97 0.76 82 1006.7
20260508091416 16 332 8.0 25.7 0.00 0.97 0.76 81 1006.7
20260508090917 16 297 9.7 29.0 0.00 0.97 0.76 82 1006.6
20260508090401 16 304 8.0 29.0 0.00 0.97 0.76 82 1006.5
20260508085840 15 2 6.4 14.5 0.00 0.97 0.76 86 1006.6
20260508085339 15 308 4.8 22.5 0.00 0.97 0.76 88 1006.4
20260508085101 15 354 6.4 20.9 0.00 0.97 0.76 89 1006.2
20260508084332 15 317 9.7 22.5 0.00 0.97 0.76 90 1006.1
20260508083822 15 293 6.4 22.5 0.00 0.97 0.76 92 1006.0
20260508083321 15 251 4.8 16.1 0.00 0.97 0.76 94 1005.8
20260508082821 15 350 4.8 11.3 0.00 0.97 0.76 95 1005.6
20260508082320 15 12 4.8 14.5 0.00 0.97 0.76 95 1005.5
20260508081812 15 321 1.6 14.5 0.00 0.97 0.76 96 1005.6
20260508081258 15 148 0.0 3.2 0.00 0.97 0.76 96 1005.5
20260508080743 15 36 0.0 3.2 0.00 0.97 0.76 96 1005.4
20260508080244 15 251 0.0 3.2 0.00 0.97 0.76 96 1005.5
20260508075744 15 251 0.0 3.2 0.00 0.97 0.76 96 1005.5
20260508075243 15 252 0.0 3.2 0.00 0.97 0.76 96 1005.3
20260508075006 15 252 0.0 3.2 0.00 0.97 0.76 96 1005.1
20260508074235 15 252 0.0 3.2 0.00 0.97 0.76 96 1004.8
20260508073733 15 241 0.0 1.6 0.00 0.97 0.76 96 1004.9
20260508073231 15 241 0.0 3.2 0.00 0.97 0.76 96 1004.7
20260508073003 15 241 1.6 4.8 0.00 0.97 0.76 96 1004.6
20260508072505 15 252 1.6 4.8 0.03 0.97 0.76 95 1004.5
20260508071729 15 58 3.2 4.8 0.05 0.97 0.76 95 1004.2
20260508071231 15 74 3.2 9.7 0.08 0.97 0.76 95 1004.1
20260508070713 14 88 1.6 9.7 0.10 0.97 0.76 95 1004.4
20260508070212 15 45 1.6 4.8 0.15 0.97 0.76 95 1004.4
20260508065707 15 40 1.6 4.8 0.18 0.97 0.76 95 1004.4
20260508065157 14 55 1.6 4.8 0.18 0.97 0.76 94 1004.4
20260508064659 15 87 0.0 4.8 0.20 0.97 0.76 94 1004.3
20260508064130 15 68 1.6 4.8 0.25 0.97 0.76 94 1004.5
20260508063850 15 29 1.6 4.8 0.28 0.97 0.76 94 1004.7
20260508063338 15 31 1.6 4.8 0.36 0.97 0.76 94 1005.1
20260508062558 15 43 1.6 8.0 0.46 0.97 0.76 94 1005.0
20260508062049 15 61 3.2 17.7 0.43 0.94 0.74 93 1004.8
20260508061547 15 40 3.2 17.7 0.41 0.91 0.71 93 1005.4
20260508061047 15 295 8.0 19.3 0.38 0.89 0.69 93 1005.3
20260508060545 15 289 9.7 24.1 0.36 0.86 0.66 92 1005.3
20260508060043 15 267 9.7 24.1 0.30 0.81 0.61 91 1005.2
20260508055544 15 261 9.7 29.0 0.28 0.79 0.58 90 1005.1
20260508055039 16 259 11.3 25.7 0.28 0.79 0.58 89 1004.6
20260508054526 16 251 9.7 22.5 0.23 0.74 0.53 88 1005.0
20260508054017 17 268 9.7 20.9 0.18 0.69 0.51 88 1004.8
20260508053454 18 270 8.0 32.2 0.15 0.66 0.46 89 1004.4
20260508052954 19 262 4.8 32.2 0.08 0.58 0.38 93 1004.9
20260508052455 20 206 3.2 9.7 0.03 0.51 0.30 93 1004.2
20260508051955 20 291 3.2 9.7 0.28 0.51 0.30 93 1004.0
20260508051446 20 245 1.6 4.8 0.28 0.51 0.30 92 1003.4
20260508050940 20 233 1.6 6.4 0.28 0.51 0.30 92 1003.5
20260508050652 20 216 1.6 6.4 0.28 0.51 0.30 91 1003.6
20260508045919 20 263 3.2 6.4 0.28 0.51 0.30 91 1003.4
20260508045410 20 266 3.2 6.4 0.28 0.51 0.30 90 1003.1
20260508044911 20 233 1.6 6.4 0.28 0.51 0.30 89 1002.8
20260508044410 20 260 1.6 12.9 0.28 0.51 0.30 88 1002.8
20260508043857 21 335 3.2 12.9 0.28 0.51 0.30 88 1002.8
20260508043332 21 322 6.4 17.7 0.28 0.51 0.30 86 1002.5
20260508042827 21 332 6.4 17.7 0.28 0.51 0.30 85 1002.5
20260508042315 21 346 6.4 16.1 0.25 0.46 0.28 84 1002.4
20260508041811 21 328 8.0 16.1 0.03 0.23 0.03 81 1002.5
20260508041311 21 312 8.0 16.1 0.03 0.23 0.03 81 1002.2
20260508040801 21 345 8.0 17.7 0.03 0.23 0.03 82 1001.9
20260508040257 21 307 6.4 17.7 0.03 0.23 0.03 82 1001.7
20260508035757 21 332 6.4 16.1 0.03 0.23 0.03 83 1001.7
20260508035255 21 316 4.8 16.1 0.03 0.23 0.03 83 1001.7